Regional Weather Roundup
Issued by NWS

Home | Current Version | Previous Version | Graphics & Text | Print | Product List | Glossary On
Versions: 1 2 3 4 5 6 7 8 9 10 11 12 13 14 15 16 17 18 19 20 21 22 23 24 25 26 27
000
ASUS45 KSLC 280210
RWRUT

UTAH REGIONAL WEATHER ROUNDUP
NATIONAL WEATHER SERVICE SALT LAKE CITY UT
800 PM MDT WED JUL 27 2016

UTZ001>011-023>025-280300-

NORTHERN UTAH

CITY           SKY/WX    TMP DP  RH WIND       PRES   REMARKS
BRIGHAM CITY     N/A     93  33  11 E3        30.03F
HILL AFB       CLEAR     92  32  11 SE3       30.08F
LOGAN          CLEAR     92  41  17 SW5       30.04F
OGDEN          CLEAR     94  28   9 SE5       30.04F
PROVO AIRPORT  CLEAR     91  48  22 W8        30.05F
SALT LAKE CITY CLEAR     98  27   8 NE6       30.02F HX  92
VERNAL         CLEAR     88  42  20 SW5       30.08R
WENDOVER       CLEAR     97  34  11 SE5       30.01S HX  91
HEBER CITY     CLEAR     88  28  11 N6        30.15S

$$

UTZ012>022-026-027-280300-

SOUTHERN/CENTRAL UTAH

CITY           SKY/WX    TMP DP  RH WIND       PRES   REMARKS
BLANDING       CLEAR     91  30  11 N7        30.21S
BRYCE CANYON   PTCLDY    86  29  12 NE13      30.31R
CEDAR CITY     CLEAR     95  24   8 CALM      30.10F
DELTA          CLEAR     95  25   8 NE3       30.04F
MILFORD        CLEAR     99  20   6 NE8       30.05S HX  92
MOAB/CYNLANDS  CLEAR    100  27   7 SE6       29.98S HX  93
PRICE          CLEAR     92  23   8 NW10G18   30.15S
ST GEORGE      CLEAR    108  39   9 SW13      29.85R HX 101

$$

REGIONAL REPORTS     COLORADO/ARIZONA

CITY           SKY/WX    TMP DP  RH WIND       PRES   REMARKS
CRAIG, CO      CLEAR     85  20   9 N5        30.18R
GRAND JUNCTION CLEAR     94  33  11 NW3       30.03R
RIFLE          CLEAR     92  27   9 N3        30.10S
MONTROSE       CLEAR     89  40  17 W6        30.14S
CORTEZ         CLEAR     89  37  16 N8        30.13R
PAGE, AZ       CLEAR    102  29   7 NE7       29.96S HX  95
GRAND CANYON   PTCLDY    90  33  13 N5        30.23R
KINGMAN        MOCLDY    96  44  16 S9        29.95F HX  92
FLAGSTAFF      CLEAR     83  29  14 N3        30.26R

$$

REGIONAL REPORTS    NEVADA/IDAHO/WYOMING

CITY           SKY/WX    TMP DP  RH WIND       PRES   REMARKS
LAS VEGAS, NV  PTCLDY   108  43  11 SW14G22   29.76R HX 103
ELY            CLEAR     94  20   7 NE6       30.16S
ELKO           SUNNY     97  14   5 W12G23    30.07F HX  90
POCATELLO, ID  CLEAR     92  32  12 S7        30.04F
BURLEY         PTCLDY    86  52  30 SE5       30.00S
EVANSTON, WY   CLEAR     82  22  11 NW6       30.30S
ROCK SPRINGS   CLEAR     85  17   8 W13       30.23R
KEMMERER         N/A    N/A N/A N/A NW7       30.31S

$$




USA.gov is the U.S. government's official web portal to all federal, state and local government web resources and services.